Location: Dürabuch
(48.2640°N, 11.2185°E)
Time: 02:15:09
(UTC+00:00)

ATLAS 2AS CENTAUR R/B - Pass Details

Date: 23 May 2024
Orbit: 1017 x 1194 km, 63.7° (Epoch: 19 June)

Event Time Altitude Azimuth Distance (km) Brightness Sun altitude
Rises 01:31:26 0° 318° (NW) 3,917 5.9 -14.4°
Reaches altitude 10° 01:34:13 10° 323° (NW) 2,931 5.2 -14.1°
Maximum altitude 01:41:02 59° 42° (NE) 1,206 3.3 -13.4°
Drops below altitude 10° 01:47:34 10° 122° (ESE) 2,820 5.0 -12.8°
Sets 01:50:12 0° 126° (SE) 3,758 5.6 -12.5°
